| time (UTC) | temp F | wind direction | speed knots | gust knots | rain 1hr in | rain 24hr in | rain mn in | humidity % | barometer mb |
| 20260510130502 | 53 | 238 | 7.8 | 14.8 | 0.00 | 0.12 | 0.12 | 68 | 1008.8 |
| 20260510125501 | 53 | 305 | 7.8 | 15.6 | 0.00 | 0.12 | 0.12 | 70 | 1008.6 |
| 20260510125001 | 53 | 259 | 7.8 | 15.6 | 0.00 | 0.12 | 0.12 | 70 | 1008.4 |
| 20260510124501 | 53 | 236 | 7.8 | 14.8 | 0.00 | 0.12 | 0.12 | 71 | 1008.3 |
| 20260510124001 | 53 | 296 | 6.1 | 14.8 | 0.00 | 0.12 | 0.12 | 72 | 1008.3 |
| 20260510123501 | 54 | 287 | 6.1 | 11.3 | 0.00 | 0.12 | 0.12 | 73 | 1008.2 |
| 20260510123001 | 54 | 281 | 7.0 | 13.9 | 0.00 | 0.12 | 0.12 | 72 | 1008.1 |
| 20260510122502 | 53 | 271 | 8.7 | 17.4 | 0.00 | 0.12 | 0.12 | 72 | 1008.0 |
| 20260510121502 | 53 | 246 | 6.1 | 16.5 | 0.00 | 0.12 | 0.12 | 73 | 1008.0 |
| 20260510121001 | 52 | 250 | 7.0 | 16.5 | 0.00 | 0.12 | 0.12 | 74 | 1007.9 |
| 20260510120502 | 52 | 246 | 7.0 | 13.9 | 0.00 | 0.12 | 0.12 | 74 | 1007.8 |
| 20260510120005 | 52 | 236 | 7.8 | 13.9 | 0.00 | 0.12 | 0.12 | 74 | 1007.7 |
| 20260510115000 | 52 | 241 | 7.0 | 13.0 | 0.00 | 0.12 | 0.12 | 78 | 1007.7 |
| 20260510114500 | 52 | 264 | 7.8 | 13.0 | 0.00 | 0.12 | 0.12 | 78 | 1007.6 |
| 20260510114000 | 51 | 244 | 7.0 | 13.0 | 0.00 | 0.12 | 0.12 | 80 | 1007.4 |
| 20260510113500 | 51 | 209 | 5.2 | 14.8 | 0.00 | 0.12 | 0.12 | 82 | 1007.5 |
| 20260510113000 | 51 | 198 | 5.2 | 14.8 | 0.00 | 0.12 | 0.12 | 82 | 1007.5 |
| 20260510112500 | 51 | 270 | 6.1 | 12.2 | 0.00 | 0.12 | 0.12 | 84 | 1007.4 |
| 20260510111500 | 51 | 227 | 5.2 | 13.9 | 0.00 | 0.12 | 0.12 | 85 | 1007.5 |
| 20260510111001 | 51 | 220 | 6.1 | 12.2 | 0.00 | 0.12 | 0.12 | 85 | 1007.3 |
| 20260510110500 | 51 | 244 | 6.1 | 12.2 | 0.00 | 0.12 | 0.12 | 85 | 1007.2 |
| 20260510105500 | 51 | 275 | 6.1 | 13.9 | 0.00 | 0.12 | 0.12 | 87 | 1006.9 |
| 20260510105000 | 51 | 208 | 5.2 | 13.9 | 0.00 | 0.12 | 0.12 | 88 | 1006.9 |
| 20260510104501 | 51 | 216 | 5.2 | 10.4 | 0.00 | 0.12 | 0.12 | 90 | 1006.7 |
| 20260510104000 | 51 | 222 | 5.2 | 10.4 | 0.00 | 0.12 | 0.12 | 90 | 1006.6 |
| 20260510103500 | 51 | 196 | 5.2 | 10.4 | 0.00 | 0.12 | 0.12 | 91 | 1006.6 |
| 20260510103000 | 51 | 223 | 5.2 | 10.4 | 0.00 | 0.12 | 0.12 | 91 | 1006.4 |
| 20260510102500 | 51 | 229 | 5.2 | 8.7 | 0.00 | 0.12 | 0.12 | 91 | 1006.2 |
| 20260510102000 | 51 | 188 | 5.2 | 10.4 | 0.00 | 0.12 | 0.12 | 91 | 1006.3 |
| 20260510101501 | 51 | 224 | 5.2 | 10.4 | 0.00 | 0.12 | 0.12 | 91 | 1006.3 |
| 20260510101001 | 51 | 239 | 6.1 | 10.4 | 0.00 | 0.12 | 0.12 | 91 | 1006.1 |
| 20260510100003 | 51 | 238 | 6.1 | 10.4 | 0.00 | 0.12 | 0.12 | 93 | 1005.9 |
| 20260510095500 | 51 | 211 | 6.1 | 10.4 | 0.00 | 0.12 | 0.12 | 94 | 1006.3 |
| 20260510095000 | 51 | 241 | 6.1 | 10.4 | 0.00 | 0.12 | 0.12 | 94 | 1006.2 |
| 20260510093500 | 51 | 221 | 5.2 | 12.2 | 0.00 | 0.12 | 0.12 | 94 | 1005.8 |
| 20260510093000 | 51 | 233 | 4.3 | 9.6 | 0.00 | 0.12 | 0.12 | 95 | 1005.7 |
| 20260510092500 | 51 | 250 | 3.5 | 9.6 | 0.00 | 0.12 | 0.12 | 95 | 1005.8 |
| 20260510092000 | 50 | 215 | 3.5 | 7.8 | 0.00 | 0.12 | 0.12 | 95 | 1005.7 |
| 20260510091500 | 50 | 232 | 2.6 | 7.0 | 0.00 | 0.12 | 0.12 | 94 | 1005.5 |
| 20260510091000 | 50 | 221 | 3.5 | 7.0 | 0.00 | 0.12 | 0.12 | 94 | 1005.6 |
| 20260510090501 | 51 | 223 | 3.5 | 7.0 | 0.00 | 0.12 | 0.12 | 94 | 1005.5 |
| 20260510090004 | 51 | 209 | 3.5 | 7.0 | 0.00 | 0.12 | 0.12 | 94 | 1005.5 |
| 20260510085500 | 51 | 213 | 4.3 | 7.0 | 0.00 | 0.12 | 0.12 | 94 | 1005.5 |
| 20260510085000 | 51 | 229 | 4.3 | 7.0 | 0.00 | 0.12 | 0.12 | 94 | 1005.4 |
| 20260510084500 | 51 | 225 | 4.3 | 7.0 | 0.00 | 0.12 | 0.12 | 95 | 1005.4 |
| 20260510083501 | 51 | 221 | 3.5 | 7.8 | 0.00 | 0.12 | 0.12 | 95 | 1005.3 |
| 20260510083000 | 51 | 219 | 4.3 | 7.8 | 0.00 | 0.12 | 0.12 | 95 | 1005.2 |
| 20260510082500 | 51 | 194 | 3.5 | 7.0 | 0.00 | 0.12 | 0.12 | 95 | 1005.1 |
| 20260510082000 | 51 | 218 | 3.5 | 7.0 | 0.00 | 0.12 | 0.12 | 95 | 1005.2 |
| 20260510081501 | 51 | 234 | 3.5 | 7.8 | 0.00 | 0.12 | 0.12 | 95 | 1005.1 |
| 20260510081001 | 51 | 213 | 3.5 | 7.8 | 0.00 | 0.12 | 0.12 | 95 | 1005.1 |
| 20260510080500 | 51 | 215 | 3.5 | 7.8 | 0.00 | 0.12 | 0.12 | 96 | 1005.1 |
| 20260510080004 | 50 | 215 | 2.6 | 7.0 | 0.00 | 0.12 | 0.12 | 95 | 1005.1 |
| 20260510075500 | 50 | 227 | 1.7 | 3.5 | 0.00 | 0.12 | 0.12 | 95 | 1005.1 |
| 20260510075000 | 50 | 228 | 1.7 | 3.5 | 0.00 | 0.12 | 0.12 | 95 | 1005.0 |
| 20260510074000 | 49 | 206 | 0.9 | 1.7 | 0.00 | 0.12 | 0.12 | 94 | 1005.0 |
| 20260510073501 | 49 | 176 | 1.7 | 2.6 | 0.00 | 0.12 | 0.12 | 95 | 1004.8 |
| 20260510073002 | 49 | 176 | 1.7 | 2.6 | 0.00 | 0.12 | 0.12 | 94 | 1004.8 |
| 20260510072500 | 50 | 153 | 1.7 | 2.6 | 0.00 | 0.12 | 0.12 | 94 | 1004.7 |
| 20260510072000 | 50 | 151 | 1.7 | 2.6 | 0.00 | 0.12 | 0.12 | 94 | 1004.7 |
| 20260510071000 | 50 | 184 | 1.7 | 3.5 | 0.00 | 0.12 | 0.12 | 94 | 1004.8 |
| 20260510070500 | 50 | 175 | 1.7 | 4.3 | 0.00 | 0.12 | 0.12 | 94 | 1004.8 |
| 20260510070004 | 50 | 163 | 1.7 | 4.3 | 0.00 | 0.12 | 0.12 | 94 | 1004.8 |
| 20260510065500 | 50 | 166 | 2.6 | 5.2 | 0.00 | 0.12 | 0.12 | 94 | 1004.8 |
| 20260510065000 | 50 | 192 | 2.6 | 5.2 | 0.00 | 0.12 | 0.12 | 94 | 1004.8 |
| 20260510064500 | 50 | 182 | 2.6 | 5.2 | 0.00 | 0.12 | 0.12 | 94 | 1004.8 |
| 20260510064000 | 50 | 214 | 2.6 | 6.1 | 0.00 | 0.12 | 0.12 | 94 | 1004.7 |
| 20260510063500 | 50 | 190 | 2.6 | 6.1 | 0.00 | 0.12 | 0.12 | 94 | 1004.6 |
| 20260510063001 | 50 | 192 | 3.5 | 6.1 | 0.01 | 0.12 | 0.12 | 94 | 1004.7 |
| 20260510062501 | 50 | 199 | 3.5 | 6.1 | 0.02 | 0.12 | 0.12 | 94 | 1004.6 |
| 20260510061500 | 50 | 205 | 5.2 | 8.7 | 0.04 | 0.12 | 0.12 | 94 | 1004.6 |
| 20260510061001 | 50 | 207 | 5.2 | 10.4 | 0.05 | 0.12 | 0.12 | 94 | 1004.5 |
| 20260510055500 | 50 | 148 | 4.3 | 7.8 | 0.08 | 0.12 | 0.12 | 94 | 1004.2 |
| 20260510054500 | 50 | 133 | 5.2 | 9.6 | 0.10 | 0.12 | 0.12 | 94 | 1004.1 |
| 20260510054000 | 50 | 178 | 6.1 | 10.4 | 0.12 | 0.12 | 0.12 | 94 | 1004.3 |
| 20260510053500 | 50 | 157 | 6.1 | 10.4 | 0.12 | 0.12 | 0.12 | 94 | 1004.4 |
| 20260510053000 | 50 | 135 | 6.1 | 10.4 | 0.11 | 0.11 | 0.11 | 93 | 1004.4 |
| 20260510052500 | 50 | 147 | 5.2 | 10.4 | 0.10 | 0.10 | 0.10 | 93 | 1004.7 |
| 20260510052000 | 50 | 166 | 4.3 | 8.7 | 0.09 | 0.09 | 0.09 | 92 | 1004.8 |
| 20260510051500 | 50 | 191 | 4.3 | 7.0 | 0.08 | 0.08 | 0.08 | 92 | 1004.9 |
| 20260510051000 | 50 | 173 | 4.3 | 8.7 | 0.07 | 0.07 | 0.07 | 91 | 1005.0 |
| 20260510050501 | 50 | 192 | 3.5 | 8.7 | 0.07 | 0.07 | 0.07 | 91 | 1004.9 |
| 20260510050005 | 50 | 172 | 3.5 | 7.0 | 0.06 | 0.06 | 0.06 | 90 | 1004.9 |
| 20260510045503 | 51 | 226 | 4.3 | 7.0 | 0.04 | 0.04 | 0.04 | 89 | 1005.1 |
| 20260510045004 | 51 | 196 | 4.3 | 7.0 | 0.03 | 0.03 | 0.03 | 89 | 1005.1 |
| 20260510044503 | 51 | 170 | 4.3 | 7.0 | 0.02 | 0.02 | 0.02 | 88 | 1005.1 |
| 20260510044003 | 51 | 188 | 5.2 | 7.8 | 0.00 | 0.00 | 0.00 | 87 | 1005.1 |
| 20260510043502 | 51 | 147 | 5.2 | 8.7 | 0.00 | 0.00 | 0.00 | 86 | 1005.0 |
| 20260510043004 | 51 | 171 | 5.2 | 10.4 | 0.00 | 0.00 | 0.00 | 85 | 1004.7 |
| 20260510042502 | 51 | 174 | 6.1 | 10.4 | 0.00 | 0.00 | 0.00 | 85 | 1004.5 |
| 20260510042002 | 51 | 201 | 6.1 | 11.3 | 0.00 | 0.00 | 0.00 | 85 | 1004.5 |
| 20260510041504 | 51 | 184 | 6.1 | 11.3 | 0.00 | 0.00 | 0.00 | 85 | 1004.4 |
| 20260510041002 | 51 | 167 | 7.0 | 11.3 | 0.00 | 0.00 | 0.00 | 85 | 1004.4 |
| 20260510040006 | 51 | 164 | 7.0 | 15.6 | 0.00 | 0.00 | 0.00 | 84 | 1004.5 |
| 20260510035503 | 51 | 170 | 6.1 | 13.9 | 0.00 | 0.00 | 0.00 | 84 | 1004.3 |
| 20260510035003 | 51 | 185 | 6.1 | 13.0 | 0.00 | 0.00 | 0.00 | 84 | 1004.2 |
| 20260510034503 | 51 | 146 | 7.0 | 13.0 | 0.00 | 0.00 | 0.00 | 84 | 1004.3 |
| 20260510033503 | 51 | 156 | 7.8 | 14.8 | 0.00 | 0.00 | 0.00 | 84 | 1004.3 |
| 20260510033004 | 51 | 168 | 7.0 | 14.8 | 0.00 | 0.00 | 0.00 | 84 | 1004.3 |
| 20260510032503 | 51 | 131 | 6.1 | 11.3 | 0.00 | 0.00 | 0.00 | 84 | 1004.5 |
| 20260510032003 | 51 | 129 | 6.1 | 11.3 | 0.00 | 0.00 | 0.00 | 84 | 1004.5 |
| 20260510031003 | 51 | 152 | 5.2 | 9.6 | 0.00 | 0.00 | 0.00 | 85 | 1004.6 |
| 20260510030503 | 51 | 159 | 5.2 | 8.7 | 0.00 | 0.00 | 0.00 | 85 | 1004.6 |
| 20260510030006 | 51 | 127 | 5.2 | 10.4 | 0.00 | 0.00 | 0.00 | 85 | 1004.6 |
| 20260510025003 | 51 | 152 | 7.0 | 13.0 | 0.00 | 0.00 | 0.00 | 84 | 1004.6 |
| 20260510024503 | 51 | 155 | 6.1 | 13.0 | 0.00 | 0.00 | 0.00 | 84 | 1004.7 |
| 20260510023503 | 51 | 129 | 5.2 | 9.6 | 0.00 | 0.00 | 0.00 | 84 | 1005.0 |
| 20260510023004 | 51 | 152 | 6.1 | 12.2 | 0.00 | 0.00 | 0.00 | 84 | 1005.1 |
| 20260510022003 | 51 | 162 | 6.1 | 13.9 | 0.00 | 0.00 | 0.00 | 84 | 1005.0 |
| 20260510021503 | 51 | 131 | 7.0 | 13.9 | 0.00 | 0.00 | 0.00 | 84 | 1005.1 |
| 20260510021003 | 51 | 136 | 6.1 | 10.4 | 0.00 | 0.00 | 0.00 | 84 | 1005.0 |
| 20260510020502 | 51 | 121 | 4.3 | 9.6 | 0.00 | 0.00 | 0.00 | 84 | 1005.1 |
| 20260510020005 | 51 | 125 | 3.5 | 8.7 | 0.00 | 0.00 | 0.00 | 84 | 1005.2 |
| 20260510015503 | 51 | 109 | 4.3 | 9.6 | 0.00 | 0.00 | 0.00 | 84 | 1005.3 |
| 20260510015003 | 51 | 169 | 5.2 | 9.6 | 0.00 | 0.00 | 0.00 | 83 | 1005.4 |
| 20260510014503 | 51 | 148 | 4.3 | 9.6 | 0.00 | 0.00 | 0.00 | 83 | 1005.4 |
| 20260510014002 | 51 | 167 | 4.3 | 9.6 | 0.00 | 0.00 | 0.00 | 83 | 1005.4 |
| 20260510013503 | 52 | 164 | 3.5 | 8.7 | 0.00 | 0.00 | 0.00 | 83 | 1005.3 |
| 20260510013003 | 52 | 153 | 3.5 | 8.7 | 0.00 | 0.00 | 0.00 | 82 | 1005.6 |
| 20260510012503 | 52 | 150 | 2.6 | 6.1 | 0.00 | 0.00 | 0.00 | 82 | 1005.6 |
| 20260510012003 | 52 | 158 | 2.6 | 7.8 | 0.00 | 0.00 | 0.00 | 82 | 1005.6 |
| 20260510011503 | 52 | 135 | 3.5 | 7.8 | 0.00 | 0.00 | 0.00 | 82 | 1005.6 |
| 20260510011002 | 52 | 191 | 3.5 | 7.0 | 0.00 | 0.00 | 0.00 | 82 | 1005.6 |
| 20260510010503 | 52 | 164 | 2.6 | 7.0 | 0.00 | 0.00 | 0.00 | 81 | 1005.6 |
| 20260510010004 | 52 | 127 | 4.3 | 9.6 | 0.00 | 0.00 | 0.00 | 81 | 1005.7 |
| 20260510005502 | 52 | 126 | 5.2 | 9.6 | 0.00 | 0.00 | 0.00 | 81 | 1005.6 |
| 20260510005001 | 52 | 181 | 4.3 | 10.4 | 0.00 | 0.00 | 0.00 | 80 | 1005.5 |
| 20260510003501 | 53 | 140 | 4.3 | 7.8 | 0.00 | 0.00 | 0.00 | 79 | 1005.2 |
| 20260510003003 | 53 | 159 | 5.2 | 13.0 | 0.00 | 0.00 | 0.00 | 79 | 1005.3 |
| 20260510002501 | 53 | 130 | 6.1 | 13.0 | 0.00 | 0.00 | 0.00 | 79 | 1005.4 |
| 20260510002002 | 53 | 159 | 6.1 | 10.4 | 0.00 | 0.00 | 0.00 | 78 | 1005.4 |
| 20260510001502 | 54 | 131 | 6.1 | 14.8 | 0.00 | 0.00 | 0.00 | 78 | 1005.3 |
| 20260510000501 | 54 | 92 | 6.1 | 12.2 | 0.00 | 0.00 | 0.00 | 77 | 1005.3 |
| 20260510000006 | 54 | 116 | 6.1 | 10.4 | 0.00 | 0.00 | 0.00 | 76 | 1005.3 |
| 20260509235502 | 54 | 165 | 6.1 | 12.2 | 0.00 | 0.00 | 0.00 | 76 | 1005.3 |
| 20260509235001 | 54 | 186 | 7.8 | 16.5 | 0.00 | 0.00 | 0.00 | 76 | 1005.1 |
| 20260509234502 | 54 | 158 | 8.7 | 16.5 | 0.00 | 0.00 | 0.00 | 75 | 1004.9 |
| 20260509234001 | 55 | 114 | 7.8 | 14.8 | 0.00 | 0.00 | 0.00 | 74 | 1004.9 |
| 20260509233502 | 55 | 100 | 6.1 | 13.0 | 0.00 | 0.00 | 0.00 | 74 | 1005.1 |
| 20260509233003 | 55 | 146 | 6.1 | 13.9 | 0.00 | 0.00 | 0.00 | 73 | 1005.1 |
| 20260509232502 | 56 | 121 | 7.8 | 15.6 | 0.00 | 0.00 | 0.00 | 73 | 1005.2 |
| 20260509232001 | 56 | 119 | 7.0 | 15.6 | 0.00 | 0.00 | 0.00 | 72 | 1005.1 |
| 20260509231502 | 56 | 113 | 7.0 | 13.9 | 0.00 | 0.00 | 0.00 | 71 | 1005.1 |
| 20260509231001 | 56 | 82 | 7.8 | 13.9 | 0.00 | 0.00 | 0.00 | 70 | 1005.1 |
| 20260509230502 | 57 | 98 | 7.8 | 14.8 | 0.00 | 0.00 | 0.00 | 69 | 1005.2 |
| 20260509230006 | 57 | 82 | 7.8 | 13.9 | 0.00 | 0.00 | 0.00 | 69 | 1005.1 |
| 20260509225001 | 58 | 121 | 7.0 | 13.9 | 0.00 | 0.00 | 0.00 | 67 | 1005.2 |
| 20260509224502 | 58 | 142 | 7.0 | 13.0 | 0.00 | 0.00 | 0.00 | 67 | 1005.3 |
| 20260509224001 | 58 | 108 | 7.8 | 16.5 | 0.00 | 0.00 | 0.00 | 67 | 1005.5 |
| 20260509223502 | 58 | 136 | 7.8 | 16.5 | 0.00 | 0.00 | 0.00 | 66 | 1005.6 |
| 20260509223002 | 59 | 163 | 7.8 | 16.5 | 0.00 | 0.00 | 0.00 | 65 | 1005.4 |
| 20260509222501 | 59 | 139 | 8.7 | 16.5 | 0.00 | 0.00 | 0.00 | 65 | 1005.4 |
| 20260509222002 | 59 | 147 | 7.8 | 15.6 | 0.00 | 0.00 | 0.00 | 64 | 1005.4 |
| 20260509221501 | 59 | 148 | 8.7 | 15.6 | 0.00 | 0.00 | 0.00 | 63 | 1005.4 |
| 20260509220004 | 60 | 153 | 7.0 | 13.9 | 0.00 | 0.00 | 0.00 | 61 | 1005.4 |
| 20260509215504 | 60 | 136 | 7.0 | 13.0 | 0.00 | 0.00 | 0.00 | 60 | 1005.4 |
| 20260509215002 | 60 | 128 | 8.7 | 15.6 | 0.00 | 0.00 | 0.00 | 59 | 1005.4 |
| 20260509214502 | 60 | 148 | 9.6 | 15.6 | 0.00 | 0.00 | 0.00 | 58 | 1005.4 |
| 20260509214001 | 60 | 153 | 9.6 | 18.2 | 0.00 | 0.00 | 0.00 | 58 | 1005.1 |
| 20260509213502 | 60 | 121 | 10.4 | 18.2 | 0.00 | 0.00 | 0.00 | 57 | 1005.1 |
| 20260509213002 | 60 | 140 | 9.6 | 16.5 | 0.00 | 0.00 | 0.00 | 57 | 1005.1 |
| 20260509212001 | 61 | 173 | 8.7 | 20.0 | 0.00 | 0.00 | 0.00 | 55 | 1005.3 |
| 20260509211503 | 61 | 161 | 9.6 | 20.0 | 0.00 | 0.00 | 0.00 | 54 | 1005.4 |
| 20260509211001 | 61 | 181 | 10.4 | 19.1 | 0.00 | 0.00 | 0.00 | 54 | 1005.4 |
| 20260509210502 | 61 | 143 | 9.6 | 18.2 | 0.00 | 0.00 | 0.00 | 52 | 1005.5 |
| 20260509205001 | 62 | 151 | 10.4 | 16.5 | 0.00 | 0.00 | 0.00 | 46 | 1005.3 |
| 20260509204502 | 62 | 113 | 10.4 | 18.2 | 0.00 | 0.00 | 0.00 | 46 | 1005.4 |
| 20260509204002 | 62 | 174 | 9.6 | 18.2 | 0.00 | 0.00 | 0.00 | 45 | 1005.4 |
| 20260509203002 | 62 | 166 | 10.4 | 17.4 | 0.00 | 0.00 | 0.00 | 42 | 1005.4 |
| 20260509202001 | 63 | 156 | 10.4 | 18.2 | 0.00 | 0.00 | 0.00 | 42 | 1005.4 |
| 20260509201502 | 63 | 152 | 10.4 | 20.9 | 0.00 | 0.00 | 0.00 | 40 | 1005.6 |
| 20260509201002 | 63 | 147 | 8.7 | 20.9 | 0.00 | 0.00 | 0.00 | 39 | 1005.6 |
| 20260509200501 | 63 | 121 | 10.4 | 15.6 | 0.00 | 0.00 | 0.00 | 37 | 1005.6 |
| 20260509200005 | 63 | 173 | 11.3 | 20.0 | 0.00 | 0.00 | 0.00 | 38 | 1005.7 |
| 20260509195501 | 63 | 148 | 10.4 | 20.0 | 0.00 | 0.00 | 0.00 | 36 | 1005.8 |
| 20260509195002 | 63 | 135 | 9.6 | 16.5 | 0.00 | 0.00 | 0.00 | 36 | 1005.8 |
| 20260509194502 | 64 | 150 | 9.6 | 18.2 | 0.00 | 0.00 | 0.00 | 36 | 1005.9 |
| 20260509194002 | 63 | 150 | 9.6 | 18.2 | 0.00 | 0.00 | 0.00 | 35 | 1005.9 |
| 20260509193501 | 64 | 167 | 10.4 | 17.4 | 0.00 | 0.00 | 0.00 | 35 | 1006.0 |
| 20260509193002 | 64 | 137 | 9.6 | 17.4 | 0.00 | 0.00 | 0.00 | 31 | 1006.0 |
| 20260509192501 | 64 | 149 | 8.7 | 16.5 | 0.00 | 0.00 | 0.00 | 33 | 1006.0 |
| 20260509192002 | 64 | 152 | 9.6 | 19.1 | 0.00 | 0.00 | 0.00 | 35 | 1006.1 |
| 20260509191502 | 64 | 146 | 9.6 | 19.1 | 0.00 | 0.00 | 0.00 | 32 | 1006.1 |
| 20260509191001 | 63 | 115 | 9.6 | 17.4 | 0.00 | 0.00 | 0.00 | 30 | 1006.1 |
| 20260509190502 | 64 | 136 | 8.7 | 17.4 | 0.00 | 0.00 | 0.00 | 30 | 1006.2 |
| 20260509185501 | 63 | 143 | 9.6 | 16.5 | 0.00 | 0.00 | 0.00 | 32 | 1006.5 |
| 20260509185001 | 63 | 144 | 9.6 | 16.5 | 0.00 | 0.00 | 0.00 | 30 | 1006.6 |
| 20260509184001 | 64 | 207 | 7.8 | 15.6 | 0.00 | 0.00 | 0.00 | 33 | 1006.6 |
| 20260509183501 | 63 | 140 | 9.6 | 16.5 | 0.00 | 0.00 | 0.00 | 31 | 1006.6 |
| 20260509183002 | 63 | 180 | 10.4 | 17.4 | 0.00 | 0.00 | 0.00 | 31 | 1006.6 |
| 20260509182501 | 63 | 154 | 11.3 | 17.4 | 0.00 | 0.00 | 0.00 | 29 | 1006.7 |
| 20260509181502 | 63 | 148 | 9.6 | 17.4 | 0.00 | 0.00 | 0.00 | 29 | 1006.7 |
| 20260509181002 | 63 | 174 | 9.6 | 17.4 | 0.00 | 0.00 | 0.00 | 30 | 1006.8 |
| 20260509180005 | 63 | 117 | 10.4 | 16.5 | 0.00 | 0.00 | 0.00 | 30 | 1006.9 |
| 20260509175002 | 63 | 165 | 9.6 | 20.9 | 0.00 | 0.00 | 0.00 | 30 | 1007.1 |
| 20260509174502 | 63 | 147 | 8.7 | 20.9 | 0.00 | 0.00 | 0.00 | 30 | 1007.1 |
| 20260509174001 | 63 | 160 | 8.7 | 18.2 | 0.00 | 0.00 | 0.00 | 29 | 1007.1 |
| 20260509173002 | 63 | 148 | 7.8 | 16.5 | 0.00 | 0.00 | 0.00 | 29 | 1007.6 |
| 20260509172502 | 64 | 130 | 7.8 | 13.9 | 0.00 | 0.00 | 0.00 | 30 | 1007.6 |
| 20260509170501 | 63 | 125 | 7.8 | 13.0 | 0.00 | 0.00 | 0.00 | 32 | 1007.9 |
| 20260509165501 | 63 | 135 | 7.0 | 14.8 | 0.00 | 0.00 | 0.00 | 33 | 1008.1 |
| 20260509165002 | 63 | 129 | 7.0 | 14.8 | 0.00 | 0.00 | 0.00 | 32 | 1008.2 |
| 20260509164502 | 63 | 138 | 7.0 | 14.8 | 0.00 | 0.00 | 0.00 | 34 | 1008.3 |
| 20260509164001 | 63 | 128 | 6.1 | 11.3 | 0.00 | 0.00 | 0.00 | 31 | 1008.4 |
| 20260509163501 | 63 | 186 | 5.2 | 11.3 | 0.00 | 0.00 | 0.00 | 32 | 1008.6 |
| 20260509163002 | 63 | 140 | 6.1 | 12.2 | 0.00 | 0.00 | 0.00 | 31 | 1008.6 |
| 20260509162501 | 62 | 144 | 6.1 | 13.0 | 0.00 | 0.00 | 0.00 | 34 | 1008.6 |
| 20260509161501 | 62 | 167 | 7.0 | 14.8 | 0.00 | 0.00 | 0.00 | 32 | 1008.8 |
| 20260509161001 | 62 | 149 | 6.1 | 14.8 | 0.00 | 0.00 | 0.00 | 32 | 1008.9 |
| 20260509160501 | 62 | 150 | 6.1 | 13.0 | 0.00 | 0.00 | 0.00 | 33 | 1009.0 |
| 20260509160004 | 62 | 174 | 5.2 | 13.0 | 0.00 | 0.00 | 0.00 | 35 | 1009.1 |
| 20260509155501 | 61 | 158 | 5.2 | 9.6 | 0.00 | 0.00 | 0.00 | 35 | 1009.1 |
| 20260509155001 | 61 | 173 | 6.1 | 9.6 | 0.00 | 0.00 | 0.00 | 36 | 1009.3 |
| 20260509154502 | 60 | 174 | 7.0 | 11.3 | 0.00 | 0.00 | 0.00 | 36 | 1009.4 |
| 20260509154001 | 60 | 143 | 7.0 | 10.4 | 0.00 | 0.00 | 0.00 | 36 | 1009.5 |
| 20260509153501 | 60 | 162 | 7.8 | 11.3 | 0.00 | 0.00 | 0.00 | 37 | 1009.5 |
| 20260509153002 | 60 | 163 | 7.8 | 13.9 | 0.00 | 0.00 | 0.00 | 37 | 1009.6 |
| 20260509152501 | 60 | 171 | 6.1 | 13.9 | 0.00 | 0.00 | 0.00 | 36 | 1009.6 |
| 20260509152001 | 60 | 104 | 6.1 | 11.3 | 0.00 | 0.00 | 0.00 | 37 | 1009.6 |
| 20260509151502 | 59 | 150 | 6.1 | 11.3 | 0.00 | 0.00 | 0.00 | 39 | 1009.7 |
| 20260509150501 | 59 | 131 | 6.1 | 10.4 | 0.00 | 0.00 | 0.00 | 41 | 1009.8 |
| 20260509145502 | 58 | 123 | 6.1 | 9.6 | 0.00 | 0.00 | 0.00 | 44 | 1009.8 |
| 20260509145002 | 58 | 144 | 5.2 | 9.6 | 0.00 | 0.00 | 0.00 | 45 | 1009.8 |
| 20260509144002 | 57 | 165 | 4.3 | 8.7 | 0.00 | 0.00 | 0.00 | 44 | 1009.9 |
| 20260509143501 | 57 | 104 | 4.3 | 8.7 | 0.00 | 0.00 | 0.00 | 45 | 1010.0 |
| 20260509143001 | 57 | 144 | 4.3 | 8.7 | 0.00 | 0.00 | 0.00 | 45 | 1010.0 |
| 20260509142501 | 57 | 188 | 4.3 | 8.7 | 0.00 | 0.00 | 0.00 | 45 | 1010.1 |
| 20260509141502 | 56 | 167 | 5.2 | 9.6 | 0.00 | 0.00 | 0.00 | 46 | 1010.1 |
| 20260509141001 | 56 | 113 | 4.3 | 8.7 | 0.00 | 0.00 | 0.00 | 46 | 1010.2 |
| 20260509140501 | 56 | 205 | 4.3 | 8.7 | 0.00 | 0.00 | 0.00 | 45 | 1010.2 |
| 20260509140005 | 56 | 148 | 4.3 | 8.7 | 0.00 | 0.00 | 0.00 | 46 | 1010.2 |
| 20260509135500 | 55 | 144 | 4.3 | 8.7 | 0.00 | 0.00 | 0.00 | 46 | 1010.2 |
| 20260509135000 | 55 | 114 | 3.5 | 7.0 | 0.00 | 0.00 | 0.00 | 46 | 1010.2 |
| 20260509134000 | 54 | 191 | 2.6 | 6.1 | 0.00 | 0.00 | 0.00 | 49 | 1010.2 |
| 20260509133500 | 54 | 126 | 1.7 | 5.2 | 0.00 | 0.00 | 0.00 | 50 | 1010.2 |
| 20260509133002 | 53 | 91 | 1.7 | 4.3 | 0.00 | 0.00 | 0.00 | 52 | 1010.3 |
| 20260509132500 | 53 | 88 | 2.6 | 6.1 | 0.00 | 0.00 | 0.00 | 52 | 1010.4 |
| 20260509132000 | 52 | 112 | 4.3 | 6.1 | 0.00 | 0.00 | 0.00 | 53 | 1010.4 |
| 20260509131502 | 51 | 155 | 4.3 | 6.1 | 0.00 | 0.00 | 0.00 | 52 | 1010.4 |
| 20260509131000 | 51 | 157 | 3.5 | 7.0 | 0.00 | 0.00 | 0.00 | 51 | 1010.4 |